User: anonymous   Login
Location: Caltech
(34.1382°N, 118.1253°W)
Time: 15:00:53
(UTC-07:00)
Language:

PANSAT - Orbit

View from above orbital plane
View from above orbital plane
View from above satellite
View from above satellite

Ground track
Ground track

The orbit data is extracted from the following two-line orbital elements,

1 25520U 98064B   17080.59584861 +.00000895 +00000-0 +23742-4 0  9997
2 25520 028.4553 220.9044 0005590 110.6329 249.4866 15.28244156020565
Epoch (UTC): 21 March 2017 14:18:01
Eccentricity: 0.0005590
inclination: 28.4553°
perigee height: 477 km
apogee height: 485 km
right ascension of ascending node: 220.9044°
argument of perigee: 110.6329°
revolutions per day: 15.28244156
mean anomaly at epoch: 249.4866°
orbit number at epoch: 2056

The dashed part of the orbit path shows where the satellite is in the earth's shadow,  

DLR